STARLINK-32453, 61671

Orbit data source: Space-Track

STARLINK-32453, 61671 is a payload satellite owned by SpaceX/Seattle (US) in LEO that was launched on Sat, 26 Oct 2024 UTC via an FALCON 9 launch vehicle from the Air Force Eastern Test Range (AFETR). Payload-class satellites include a variety of spacecraft equipped with specific instruments for various scientific and technological missions. These include communications satellites like Starlink; space stations such as the ISS; scientific satellites like the Hubble; Earth observation satellites from companies like Planet Labs, Umbra, and HawkEye 360; GPS; miniature CubeSats for education and research; and military/defense satellites.

Loading next visibility...
Identifier
61671, 2024-193L
Orbit
LEO
Country
Flag of USUS
Related business
Manufacturer
SpaceX/Seattle
Mission
Operational Commercial Communications
Bus & Motor
STARLINK V2M, Unknown motor
Mass
730 kg wet, ~700 kg dry
Launch date (UTC)
2024-10-26 (1 year ago)
Launch vehicle
FALCON 9
Launch site
Air Force Eastern Test Range (AFETR)
Object type
Payload
Rocket body
Debris
Shape & HBR
Box + 2 Pan, 17.7 m
Radar Cross Section
33.884 m², Large (>1 m²)

Expand to show TLE details & history
Last TLE update: 12 hours ago

TLE from 12 hours ago
0 STARLINK-32453
1 61671U 24193L   25290.55663509 -.00000631  00000-0 -91746-5 0  9991
2 61671  53.1622  35.7509 0001324 104.4884 255.6264 15.30183597 54618
Epoch: 2025-10-17T13:21Z
TLE epoch observation values (Epoch: 2025-10-17T13:21:33.271Z)
Latitude
-0.00002°
Longitude
169.06195°
Altitude
476.389 km
Speed
7.629 km/s
True Right ascension
02h 23m 00s
True Declination
0° 00' 00"
Sunlit
Object was in full shadow at epoch
Visualization orbit readout
Latitude
Unknown
Longitude
Unknown
Altitude
Unknown
Speed
Unknown
Apparent Right ascension
Unknown
Apparent Declination
Unknown
Sunlit
N/A
Visualization observer readout
Local Sidereal Time
19:43:23
Azimuth
Unknown
Elevation
Unknown
Doppler factor
Unknown
Orbital elements
Apogee altitude
476.428 km
Perigee altitude
474.613 km
Semi-major axis
6,853.657 km
Eccentricity
0.00013
Inclination
53.1622°
RAAN
35.7509°
Arg. of periapsis
104.4884°
True anomaly
255.6117°
Mean anomaly
255.6264°
Eccentric anomaly
255.61905°
Mean motion
3.82525 °/min
Orbital period
94.11 mins
BSTAR
-0.0000091746
Loading maneuver chart data...
Computing Atmospheric mass density...
Loading historical data...
Loading historical data...
Loading historical data...
Loading historical data...
Loading historical data...
Loading historical data...
Loading historical data...

Documentation

Showing up to 5 results
|